Regional Weather Roundup
Issued by NWS Mobile, AL

Home | Current Version | Previous Version | Text Only | Print | Product List | Glossary On
Versions: 1 2 3 4 5 6 7 8 9 10 11 12 13 14 15 16 17 18 19 20 21 22 23 24 25 26 27 28 29 30 31 32 33 34 35 36 37 38 39 40 41 42 43 44 45 46 47 48 49
000
ASUS44 KMOB 241912
RWRMOB
REGIONAL WEATHER ROUNDUP
NATIONAL WEATHER SERVICE MOBILE AL
200 PM CDT TUE MAY 24 2016

NOTE: "FAIR" INDICATES FEW OR NO CLOUDS BELOW 12,000 FEET WITH NO
      SIGNIFICANT WEATHER AND/OR OBSTRUCTIONS TO VISIBILITY.

  * THESE STATIONS ARE PART OF THE UNIVERSITY OF SOUTH ALABAMA
    MESONET AND ARE NOT UNDER NWS OR FAA QUALITY CONTROL.

ALZ061>064-242000-
COASTAL ALABAMA

CITY           SKY/WX    TMP DP  RH WIND       PRES   REMARKS
MOBILE REG APT MOSUNNY   84  62  47 SE10G18   30.12F
BROOKLEY FIELD MOSUNNY   82  63  52 S7        30.13F
USA CAMPUS*    NOT AVBL
DOG RIVER*     NOT AVBL


CITY           SKY/WX    TMP DP  RH WIND       PRES   REMARKS
MOUNT VERNON*  NOT AVBL
SARALAND*      NOT AVBL
BAY MINETTE*   NOT AVBL
LOXLEY*        NOT AVBL
ROBERTSDALE*   NOT AVBL
FAIRHOPE*      NOT AVBL
ELBERTA*       NOT AVBL
FOLEY*         NOT AVBL
GRAND BAY*     NOT AVBL
DAUPHIN ISLND* NOT AVBL
BON SCOUR NWR* NOT AVBL
GULF SHORES    SUNNY     82  63  52 SE13      30.13S

$$

ALZ051>060-242000-
INTERIOR SOUTHWEST AND SOUTH CENTRAL ALABAMA

CITY           SKY/WX    TMP DP  RH WIND       PRES   REMARKS
GREENVILLE     SUNNY     86  50  28 SW7       30.12F
EVERGREEN      SUNNY     86  55  34 W3        30.13F
CASTLEBERRY*   NOT AVBL
ATMORE*        NOT AVBL
DIXIE*         NOT AVBL
ANDALUSIA/OPP  SUNNY     91  53  27 VRB5      30.13F
ANDALUSIA*     NOT AVBL
FLORALA APT    NOT AVBL
FLORALA*       NOT AVBL

$$

FLZ001>006-242000-
WESTERN FLORIDA PANHANDLE

CITY           SKY/WX    TMP DP  RH WIND       PRES   REMARKS
PENSACOLA      SUNNY     85  52  32 SE12      30.12F
NAS PENSACOLA  MOSUNNY   84  53  34 SE8       30.13S
MILTON         MOSUNNY   86  54  33 CALM      30.12F
WHTNG S FIELD  MOSUNNY   88  57  34 S8        30.11F


CITY           SKY/WX    TMP DP  RH WIND       PRES   REMARKS
WALNUT HILL*   NOT AVBL
JAY*           NOT AVBL
DUKE FIELD     MOSUNNY   88  51  28 S7        30.11F
CRESTVIEW      SUNNY     89  53  29 MISG      30.13F
VALPARAISO     MOSUNNY   85  58  39 SW10      30.12S
DESTIN         SUNNY     85  64  49 VRB6      30.12F

$$

MSZ076-079-242000-
INTERIOR SOUTHEAST MISSISSIPPI

CITY           SKY/WX    TMP DP  RH WIND       PRES   REMARKS
LEAKESVILLE*   NOT AVBL
AGRICOLA*      NOT AVBL

$$

MARINE OBSERVATIONS

STATION/POSITION TIME  TEMP    WIND        PRES    WAVE
                       AIR SEA DIR/SP/G            HT/PER
                 (UTC) (F)     (DEG/KT/KT) (MB)    (FT/S)
PASCAGOULA       1800   79     140/  8/ 11 1020.0F
PETIT BOIS ISLND 1800   80     130/  8/ 10 1020.9S
GRAND BAY        1700   77     140/  7     1022.0S
KATRINA CUT      1800   77     140/  9     1021.0F
CEDAR POINT      1800   78     140/  7     1020.6S
E DAUPHIN ISLAND 1800   76     130/  7/  8 1020.2F
MIDDLE BAY LIGHT 1800   78     160/  9     1020.3S
USCG MOBILE BAY  1800   80 78  160/  5/  7 1020.8F
STATE DOCKS      1800   82 78              1020.1F
MEAHER PARK      1800   78     230/  7     1019.3F
WEEKS BAY        1700   83                   N/A
FORT MORGAN      1800   78     150/  7/  9 1020.0F
12 S ORANGE BCH  1850   77 79  100/  8/ 10 1019.9F   1/ 3
PENSACOLA BAY    1800      79  200/  3/  4 1020.7F
64 S DAUPHIN ISL 1800   77 78  100/ 10/ 12 1019.8F

$$

SELECTED LOCATIONS ACROSS THE REGION

CITY           SKY/WX    TMP DP  RH WIND       PRES   REMARKS
NEW ORLEANS    PTSUNNY   88  72  58 S10       30.08F
GULFPORT       SUNNY     82  63  52 E13G20    30.11F
PASCAGOULA AP  SUNNY     83  64  52 VRB7      30.12F
PASCAGOULA*    NOT AVBL
HATTIESBURG    SUNNY     87  55  33 E10       30.10F
LAUREL         SUNNY     84  54  34 SE9       30.12S
MERIDIAN       SUNNY     86  58  38 S8        30.09F
JACKSON        MOSUNNY   87  58  37 SE13      30.08F
MONTGOMERY     SUNNY     87  51  28 VRB5      30.13F
TROY           MOSUNNY   86  57  37 SW6       30.14S
KINSTON*       NOT AVBL
GENEVA*        NOT AVBL
ASHFORD*       NOT AVBL
DOTHAN         SUNNY     86  47  25 E3        30.16F
PANAMA CITY    SUNNY     88  52  29 S3        30.10F

$$




USA.gov is the U.S. government's official web portal to all federal, state and local government web resources and services.